Weather in Engozero

Russia / Republic of Karelia     65°47′21″N   33°56′33″E
temp.,
°C
wind,
m/s
gust,
m/s
humid.,
%
clouds,
%
prec.,
mm/h
press.,
hPa
HPBL,
m
26 july, mon
mon2600:00+14wnw267892 0.0 1013174
03:00+14nw3979100 0.0 1014530
06:00+14nw377296 0.0 1015566
09:00+16nnw476087 0.0 10161380
12:00+18nnw474112 0.0 10181801
15:00+20nnw57365 0.0 10181895
18:00+19n46375 0.0 10191612
21:00+14nne23550 0.0 102074
27 july, tue
tue2700:00+9nne11695 0.0 102110
03:00+8nw117215 0.0 102210
06:00+11nw13615 0.0 1022117
09:00+17nw24425 0.0 1021867
12:00+21nw24369 0.0 10201519
15:00+23nne243314 0.0 10192150
18:00+19se44435 0.0 1018429
21:00+15sse365896 0.0 1017163
28 july, wed
wed2800:00+14ssw2670100 0.1 1015147
03:00+13ssw367788 0.3 1013123
06:00+16wnw39835 0.2 1011242
09:00+22nw24545 0.2 1010651
12:00+25n234510 0.0 10091575
15:00+22ese445680 0.6 1008645
18:00+20ese346118 1.9 1008611
21:00+15se378921 2.8 1007225
29 july, thu
thu2900:00+11ese269761 0.3 1006148
03:00+10ese379782 0.4 1005188
06:00+12e2492100 0.6 1003230
09:00+14ese467998 0.6 1002418
12:00+17se686399 0.1 1001683
15:00+19ese575476 0.2 1000932
18:00+14e6965100 0.0 999520
21:00+12e51378100 0.0 997497
30 july, fri
fri3000:00+12e51183100 0.0 995425
03:00+12e41193100 0.1 994458
06:00+11e41096100 0.5 993378
09:00+11e51098100 1.5 992434
12:00+12e4997100 0.2 991378
15:00+14se1293100 0.2 991254
18:00+17se248966 0.8 990441
21:00+14ssw4995100 2.3 989592